Lapse_Rate
5.6 5.7 5.8 5.7 5.6 5.7 5.7 5.8 5.7 5.7 5.7 5.6 5.6 5.5 5.5 5.3 5.1 5.0 4.9 5.0 5.1 5.1 5.1 5.1 5.4 5.7 5.8 5.9 5.8 6.1 6.0 6.2 6.5 6.3 6.2 6.1 6.0 5.9 5.8 5.5 5.2 5.3 4.8
6.4 6.2 6.1 6.0 6.0 5.9 5.7 5.7 5.7 5.9 5.8 5.6 5.5 5.5 5.2 5.3 5.0 5.0 4.8 4.9 5.1 5.2 5.3 5.5 5.6 5.7 6.0 6.0 5.8 5.8 5.7 5.9 6.1 6.0 6.1 6.0 5.9 5.5 5.2 5.0 5.0 4.9 4.9
6.4 6.6 6.4 6.3 6.0 6.1 6.1 6.0 5.9 5.8 5.7 5.7 5.6 5.5 5.1 5.0 4.9 4.9 5.0 5.1 5.0 5.2 5.4 5.4 5.5 5.6 5.7 5.5 5.5 5.6 5.8 5.9 6.1 6.1 5.7 5.8 5.6 5.4 5.2 4.8 4.8 4.9 4.9
6.7 6.4 6.5 6.4 6.3 6.0 6.0 6.0 6.1 6.0 5.7 5.6 5.5 5.4 5.0 4.8 4.8 4.9 4.9 5.1 5.1 5.3 5.4 5.5 5.6 5.5 5.6 5.5 5.6 5.9 6.1 6.1 6.1 6.1 6.0 5.2 5.0 4.9 4.9 4.9 4.9 5.1 5.0
6.9 6.6 6.7 6.6 6.3 6.1 6.1 6.0 5.9 5.9 5.8 5.8 5.5 5.2 5.2 5.0 5.0 5.0 5.0 5.0 5.1 5.3 5.4 5.5 5.5 5.5 5.7 5.8 6.2 6.0 6.0 5.9 5.9 5.7 5.0 4.6 4.6 4.5 4.5 4.7 4.6 4.8 5.0
6.8 6.8 6.5 6.2 6.4 6.2 6.3 6.3 6.0 5.8 5.7 5.8 5.6 5.5 5.4 5.3 5.3 5.2 5.2 5.1 5.1 5.1 5.3 5.5 5.7 5.8 5.9 5.9 5.9 5.8 5.8 5.8 5.7 5.6 5.1 4.9 5.1 4.6 4.7 4.7 4.7 4.8 4.9
7.0 6.9 6.8 6.6 6.5 6.4 6.2 6.4 6.3 6.2 6.1 6.0 5.9 5.7 5.5 5.5 5.5 5.4 5.4 5.5 5.5 5.6 5.7 5.7 5.9 6.0 6.0 6.0 6.0 6.0 5.8 5.7 5.6 5.6 5.7 5.2 5.2 4.8 4.9 4.9 4.8 4.8 4.7
7.7 7.2 6.8 6.7 6.6 6.4 6.4 6.2 6.2 6.3 6.3 6.3 6.0 5.9 5.7 5.6 5.5 5.4 5.4 5.4 5.6 5.8 5.8 5.9 5.9 6.1 6.1 6.1 6.1 6.0 6.0 5.9 5.9 5.7 5.5 5.1 5.0 5.1 5.0 5.2 5.0 4.7 4.9
8.2 7.7 7.3 6.9 6.6 6.5 6.5 6.3 6.2 6.4 6.5 6.4 6.3 6.1 6.0 6.0 5.9 5.8 5.8 6.0 6.1 6.0 6.1 6.1 6.3 6.5 6.6 6.5 6.5 6.3 6.3 6.2 5.9 5.5 5.7 5.4 5.1 5.3 5.4 5.2 5.1 5.2 5.2
8.3 8.2 7.6 7.4 7.3 6.9 6.7 6.6 6.5 6.3 6.2 6.4 6.5 6.4 6.2 6.1 6.2 6.2 6.1 6.1 5.9 5.7 5.7 6.1 6.4 6.5 6.6 6.6 6.5 6.3 6.1 5.8 5.7 5.5 5.7 5.5 5.4 5.3 5.3 5.0 5.0 5.2 5.2
8.2 8.2 8.0 7.6 7.4 7.3 7.0 6.8 6.7 6.5 6.5 6.8 6.7 6.6 6.3 6.2 6.1 6.0 6.1 5.9 5.7 5.6 5.7 6.0 6.1 6.3 6.2 6.2 6.0 5.9 5.8 5.5 5.3 5.5 5.6 5.5 5.5 5.4 5.3 5.2 5.2 5.2 5.0
8.5 8.2 8.0 7.9 7.5 7.2 7.1 7.0 6.8 6.7 6.6 6.5 6.5 6.3 6.3 6.3 6.2 6.2 6.0 5.9 5.9 5.8 5.7 5.8 6.0 6.1 6.1 6.0 5.9 5.7 5.6 5.4 5.2 5.1 5.3 5.4 5.7 5.8 5.7 5.3 5.3 5.1 5.0
8.8 8.4 8.4 8.2 8.0 7.6 7.3 6.9 6.8 6.8 6.7 6.6 6.3 6.2 6.1 6.2 6.2 6.1 6.0 6.1 6.1 5.8 5.9 6.0 6.0 6.0 5.9 5.7 5.6 5.7 5.6 5.5 5.3 5.3 5.4 5.5 5.6 5.6 5.7 5.7 5.3 5.2 5.1
8.7 8.5 8.5 8.4 8.5 8.2 7.6 7.1 6.7 6.7 6.8 6.8 6.6 6.4 6.3 6.2 6.2 6.2 6.2 6.3 6.0 5.8 5.9 5.7 5.8 5.8 5.6 5.5 5.6 5.4 5.5 5.5 5.4 5.5 5.5 5.4 5.6 5.6 5.7 5.6 5.4 5.3 5.2
8.7 8.7 8.7 8.6 8.5 8.5 8.3 7.9 7.5 7.1 7.0 6.9 6.7 6.5 6.3 6.2 6.2 6.3 6.4 6.3 5.9 5.6 5.7 5.7 5.6 5.6 5.6 5.6 5.5 5.5 5.5 5.6 5.4 5.4 5.5 5.7 5.8 5.7 5.7 5.7 5.5 5.3 5.5
8.5 8.6 8.8 8.7 8.7 8.5 8.6 8.4 8.2 7.8 7.6 7.4 6.9 6.5 6.3 6.1 6.1 6.1 6.1 6.1 6.0 5.7 5.7 5.6 5.6 5.7 5.7 5.5 5.6 5.6 5.6 5.7 5.7 5.8 5.9 6.1 6.0 5.9 5.8 5.5 5.2 5.4 5.3
8.6 8.7 8.7 8.7 8.6 8.8 8.4 8.5 8.4 8.2 8.1 7.9 7.6 7.1 6.7 6.4 6.3 6.2 6.1 6.1 6.0 5.7 5.7 5.7 5.7 5.9 5.7 5.7 5.8 5.7 5.7 5.7 5.8 6.0 6.1 6.0 5.8 5.9 5.9 5.2 5.1 5.2 5.1
8.7 8.8 8.8 8.5 8.3 8.1 8.6 8.2 8.4 8.4 8.3 8.1 7.9 7.7 7.3 6.8 6.6 6.5 6.3 6.0 5.8 5.8 5.6 5.7 5.8 5.9 5.8 5.9 5.9 5.7 5.7 5.8 5.8 5.8 5.8 5.9 5.9 6.0 5.8 5.3 5.2 5.1 4.8
8.9 8.9 8.9 8.9 8.4 7.9 8.2 8.4 8.0 8.4 8.3 8.0 8.0 7.9 7.6 7.3 7.0 6.7 6.5 6.3 6.0 5.7 5.6 5.7 5.7 5.7 5.8 5.9 6.0 6.0 6.0 5.8 5.9 5.8 5.8 5.7 5.8 6.0 5.8 5.5 5.3 5.2 5.1
8.8 9.1 9.0 9.0 9.0 8.3 8.0 7.9 8.0 8.1 8.3 8.1 7.8 7.9 7.8 7.5 7.3 7.0 6.7 6.4 6.2 5.9 5.7 5.6 5.6 5.7 5.9 6.1 6.2 6.2 6.3 6.3 6.2 6.1 6.0 5.9 6.0 6.0 6.0 5.2 5.4 5.1 4.6
8.9 9.0 9.1 9.0 8.9 8.7 8.2 8.1 8.0 8.0 8.0 8.3 7.9 7.8 7.8 7.7 7.5 7.3 7.1 6.7 6.3 6.0 5.9 5.8 5.8 6.0 6.1 6.3 6.3 6.4 6.4 6.5 6.5 6.3 6.2 6.2 6.1 6.0 6.1 5.8 5.4 5.4 5.3
7.8 8.7 8.9 8.9 8.9 8.9 8.5 8.1 8.1 7.9 8.0 7.9 8.1 8.0 8.0 7.7 7.5 7.3 6.9 6.8 6.6 6.2 6.1 6.1 6.0 6.0 6.1 6.4 6.5 6.5 6.6 6.5 6.6 6.6 6.5 6.4 6.2 6.2 6.2 6.2 5.7 5.6 5.5
7.3 7.2 7.9 8.1 8.2 8.4 8.6 8.1 7.7 7.9 7.8 7.7 8.0 8.0 7.8 7.6 7.3 7.0 6.8 6.5 6.4 6.3 6.2 6.2 6.1 6.2 6.4 6.6 6.6 6.8 6.8 6.7 6.7 6.5 6.4 6.6 6.5 6.1 6.2 6.2 5.9 5.9 5.8
7.9 7.5 7.3 7.3 7.3 7.6 7.9 8.0 7.5 7.4 7.2 7.3 7.3 7.5 7.6 7.4 7.2 7.1 6.6 6.7 6.6 6.5 6.6 6.6 6.5 6.5 6.5 6.5 6.7 6.9 7.0 7.0 6.6 6.7 6.6 6.5 6.4 6.0 6.1 6.1 6.1 6.2 5.8
7.7 7.8 7.9 7.6 7.4 7.4 7.4 7.5 7.1 7.0 7.2 7.4 6.2 7.0 7.6 7.5 6.9 6.9 6.7 6.4 6.8 6.6 6.5 6.7 6.6 6.6 6.6 6.6 6.8 6.9 7.0 6.9 6.6 6.5 6.5 6.4 6.5 6.0 5.8 5.9 5.9 6.1 6.3
7.3 7.7 7.9 8.1 7.9 7.5 7.2 7.2 7.2 7.0 6.8 6.4 6.4 6.7 6.3 6.2 6.2 6.5 6.7 6.5 6.8 6.8 6.8 6.8 6.6 6.6 6.8 7.0 7.1 7.2 7.1 6.8 6.8 6.6 6.5 6.6 6.5 6.2 5.7 5.6 5.6 5.6 5.9
Wind_Speed
19 16 17 17 15 13 13 13 11 10 7 5 5 4 5 3 3 3 4 6 5 4 4 3 3 4 3 4 2 3 3 4 5 4 3 1 4 5 4 3 3 2 2
16 15 15 16 16 16 15 13 13 12 9 7 5 3 3 2 2 3 3 3 3 3 3 3 3 4 5 5 2 2 2 2 3 3 3 4 1 4 6 5 3 2 4
19 17 14 16 17 16 15 15 14 13 10 11 6 4 2 2 3 2 2 2 2 3 5 5 5 5 6 5 3 3 2 5 1 2 3 4 6 4 3 4 1 3 1
18 17 15 14 16 17 15 14 14 13 11 11 8 7 6 5 2 2 1 2 3 5 7 7 7 6 5 6 6 3 3 1 6 2 2 6 5 4 4 1 2 3 4
19 18 18 18 17 15 15 14 14 12 11 12 11 8 8 5 3 3 3 3 4 4 5 6 6 7 6 8 9 6 5 2 2 2 3 1 3 1 2 6 2 3 4
19 17 16 13 13 13 13 14 14 13 12 12 12 11 10 8 6 5 4 4 4 3 4 5 4 5 6 7 8 8 8 6 5 2 5 4 4 3 6 5 5 4 3
20 17 16 15 15 16 16 14 14 14 14 14 13 13 12 10 9 8 6 6 5 5 2 3 5 6 7 7 8 8 8 7 5 6 6 5 6 7 9 8 6 5 2
19 19 19 18 18 18 17 16 16 15 14 14 14 12 13 9 8 8 7 6 6 5 5 6 7 9 8 7 7 6 7 7 6 9 5 6 5 8 10 7 7 3 4
18 21 21 18 18 17 19 19 17 15 14 15 13 12 11 11 10 9 7 6 7 6 7 7 8 8 7 7 7 7 8 3 7 7 8 9 6 8 5 6 7 6 3
15 16 17 18 17 18 18 18 18 17 16 15 13 12 12 11 11 9 9 8 8 7 7 8 7 8 9 9 8 8 8 8 8 7 9 9 6 7 6 6 7 7 2
15 16 16 16 17 16 16 18 17 18 16 15 14 13 12 12 11 10 10 10 8 6 7 7 8 10 10 10 9 8 9 10 9 9 8 10 9 5 5 5 4 4 3
13 14 15 15 16 17 16 18 16 16 16 13 12 13 12 11 11 12 11 10 9 7 7 8 9 9 9 9 10 9 9 10 11 11 10 9 5 10 6 5 3 4 4
10 12 13 14 16 16 17 16 16 17 15 13 13 12 11 11 12 11 11 10 9 8 7 7 8 9 8 8 8 9 11 10 11 12 11 10 7 9 5 5 5 6 3
9 13 13 14 14 13 14 15 16 16 14 14 14 12 13 13 11 10 11 10 9 7 5 6 6 6 7 8 9 10 10 10 11 10 9 10 7 8 7 5 7 7 6
9 13 14 13 13 13 13 12 13 13 13 13 13 13 10 9 9 9 10 9 8 5 3 2 4 5 6 6 9 8 8 7 9 9 9 7 7 2 7 6 9 11 6
11 10 11 12 14 14 14 13 12 12 13 14 14 10 8 9 9 9 9 9 7 5 3 0 3 7 5 11 9 6 5 7 9 10 9 7 6 3 7 9 11 11 11
13 11 12 13 12 14 13 13 12 11 11 11 10 10 10 10 10 10 10 9 7 6 5 5 7 6 6 13 10 4 5 6 7 8 8 6 5 4 7 10 13 6 6
15 13 10 8 7 7 11 11 11 12 12 11 11 10 10 10 11 11 10 8 7 7 6 7 6 6 6 12 10 7 6 6 8 8 7 6 6 5 8 9 9 6 5
15 12 10 8 7 8 5 9 11 11 12 12 11 11 11 12 12 11 10 9 9 8 7 7 7 7 8 13 12 8 6 7 7 7 7 6 7 5 8 9 8 6 4
17 12 9 7 8 10 10 11 10 12 13 12 12 12 12 12 12 11 11 9 9 8 7 7 7 7 8 11 13 9 4 6 6 7 7 9 7 8 8 7 7 7 3
18 11 6 8 9 10 11 13 11 12 10 12 12 12 12 12 12 11 9 9 9 9 8 8 7 8 7 9 10 13 5 5 4 4 4 4 5 7 9 10 6 3 3
17 12 8 7 7 10 12 13 13 9 12 12 12 11 11 9 9 11 9 9 9 9 8 7 5 4 4 9 10 10 8 9 3 4 3 4 6 7 8 7 9 9 7
15 13 11 9 8 11 12 12 9 11 12 11 11 11 10 9 10 11 8 5 6 6 6 4 3 2 3 4 8 8 8 6 3 3 5 6 7 6 6 7 8 9 6
12 12 13 12 10 10 9 8 12 13 14 15 9 10 9 9 9 8 7 5 4 4 4 4 3 2 3 5 6 6 4 5 2 3 3 4 4 2 5 6 5 3 3
10 10 9 10 8 8 9 11 11 15 12 17 12 11 9 10 9 9 7 5 6 4 4 4 3 2 3 4 6 6 4 4 4 3 2 3 1 3 3 4 5 5 5
9 11 8 4 4 6 7 9 12 16 15 13 11 11 9 10 8 8 8 16 13 16 13 11 7 5 5 5 6 6 7 4 2 1 4 4 2 2 3 4 4 4 5
Wind_Direction
228 223 219 218 217 217 213 215 210 212 208 212 223 235 251 262 283 278 258 247 242 240 213 273 279 291 282 300 303 304 347 1 358 332 311 156 91 80 67 66 91 126 121
231 226 219 214 213 211 211 209 213 208 211 218 222 235 254 263 299 305 272 209 203 212 231 259 268 272 269 265 298 330 334 335 21 337 289 330 190 88 62 62 101 135 240
226 225 217 212 213 212 207 207 209 207 210 218 216 213 238 258 270 246 201 187 237 237 233 245 255 257 266 303 305 294 284 327 41 16 345 319 338 335 59 61 46 313 301
227 226 217 214 210 215 206 207 207 203 205 204 216 211 225 233 234 280 271 274 266 260 244 241 244 263 282 283 284 273 279 309 321 351 72 55 32 343 322 126 312 285 274
224 221 215 212 209 206 202 203 202 203 206 202 215 210 220 229 241 260 290 306 326 304 250 251 270 275 274 274 269 271 273 209 251 208 113 136 101 48 285 289 274 241 244
223 220 217 211 210 205 204 199 198 206 203 204 211 216 221 228 234 236 255 268 289 294 255 260 265 291 295 280 270 260 253 248 234 239 154 165 174 210 254 248 254 263 251
211 210 201 200 203 202 205 203 202 208 207 211 214 216 224 229 237 245 252 265 267 266 277 293 282 293 289 279 266 257 257 260 251 230 193 192 186 177 228 237 237 239 217
212 211 205 202 201 204 203 205 204 212 209 212 218 217 220 228 234 241 251 260 269 276 283 287 287 285 285 277 269 265 270 268 259 256 219 220 197 198 218 215 226 195 198
206 209 210 206 204 201 203 204 208 212 209 213 216 219 220 224 233 237 240 250 259 268 267 277 281 272 279 277 274 271 277 272 271 254 222 238 215 216 241 219 227 236 163
214 214 211 208 205 206 207 206 206 210 211 213 216 222 222 223 229 235 240 245 251 249 265 268 268 265 270 277 280 280 279 281 286 274 271 252 224 216 206 213 230 240 109
213 212 209 207 207 206 204 206 207 209 209 212 214 217 220 221 227 228 229 229 238 239 250 258 267 269 276 283 283 286 293 294 295 290 269 273 246 211 212 214 229 116 104
232 213 210 203 203 205 204 205 209 211 210 207 207 213 218 216 220 227 225 225 227 231 246 260 264 270 274 283 290 304 295 295 302 302 300 290 259 227 213 199 163 138 182
227 217 204 203 202 204 205 206 204 212 210 203 205 209 216 214 220 222 222 216 214 224 244 251 266 281 295 304 306 297 301 306 301 302 302 296 270 234 207 192 151 138 152
231 209 209 201 202 198 200 205 211 213 207 203 206 209 215 217 220 220 217 205 205 205 224 254 279 292 303 303 306 310 313 312 309 313 311 303 288 232 207 183 144 140 141
232 219 207 204 199 200 200 203 212 208 201 198 203 212 215 214 214 214 210 193 191 191 181 256 288 310 313 2 328 307 308 315 326 331 337 344 335 252 190 155 151 151 154
283 240 223 212 208 202 198 202 204 203 197 202 206 205 203 205 201 198 182 169 154 142 132 77 350 29 1 343 337 335 339 347 354 350 350 6 7 163 150 146 153 152 154
310 271 232 220 213 202 193 201 198 195 197 203 200 194 191 183 179 173 167 164 156 134 118 78 64 50 13 341 319 342 20 31 26 18 8 13 31 87 122 113 115 128 82
328 308 267 240 233 225 196 190 182 180 182 187 183 174 171 170 169 165 161 149 139 137 119 99 93 69 25 353 350 337 48 41 40 36 26 33 45 42 107 120 117 131 156
319 300 281 249 199 193 181 185 170 170 170 172 170 167 168 162 162 163 156 149 143 138 120 121 107 81 44 8 10 8 30 31 32 37 42 66 72 56 112 112 114 126 129
329 310 281 234 218 186 171 173 178 172 170 169 163 159 159 158 161 159 155 149 142 135 128 113 99 81 63 20 20 8 34 33 16 40 50 50 101 94 82 112 123 133 150
331 322 290 265 232 193 183 176 172 180 170 154 152 152 153 152 149 146 150 147 148 140 134 120 104 82 47 47 20 11 36 22 16 13 25 73 114 96 94 98 97 80 144
334 321 287 262 234 208 190 181 180 154 153 150 146 141 140 142 139 139 145 149 149 145 133 121 107 79 64 30 28 10 10 353 25 11 1 90 124 119 121 121 128 135 147
327 317 288 264 223 211 214 191 153 146 137 130 126 129 125 124 124 122 125 131 144 150 153 132 123 97 36 24 17 6 348 10 27 11 344 131 130 126 93 93 136 162 184
318 315 292 264 249 207 193 199 156 146 130 119 120 121 119 112 109 111 116 129 129 130 138 137 114 65 47 29 6 354 350 9 38 11 53 137 140 112 98 148 173 204 209
301 301 285 273 265 204 178 152 153 146 136 117 144 122 116 97 83 62 65 83 41 25 118 97 71 46 58 24 314 297 340 346 0 322 122 105 141 186 195 206 192 197 194
299 291 271 192 154 155 145 153 164 142 138 138 145 131 125 117 106 95 80 51 54 50 45 42 36 100 61 319 339 21 25 13 295 51 27 46 65 213 211 224 223 213 212